User: anonymous   Login
Location: Carnoy
(49.9849°N, 2.7558°E)
Time: 12:57:36
(UTC+00:00)
Language:

H-2A R/B - Orbit

View from above orbital plane
View from above orbital plane
View from above satellite
View from above satellite

Ground track
Ground track

The orbit data is extracted from the following two-line orbital elements,

1 27601U 02056E   20094.85166110 +.00000053 +00000-0 +33842-4 0  9994
2 27601 098.2357 134.4267 0073057 139.1999 036.1828 14.31942759904019
Epoch (UTC): 03 April 2020 20:26:23
Eccentricity: 0.0073057
inclination: 98.2357°
perigee height: 733 km
apogee height: 837 km
right ascension of ascending node: 134.4267°
argument of perigee: 139.1999°
revolutions per day: 14.31942759
mean anomaly at epoch: 36.1828°
orbit number at epoch: 90401

The dashed part of the orbit path shows where the satellite is in the earth's shadow,  

DLR